�������l�o���
Date,Time,MP-1(��Sv/h),MP-2(��Sv/h),MP-3(��Sv/h),MP-4(��Sv/h),MP-5(��Sv/h),MP-6(��Sv/h),MP-7(��Sv/h),MP-8(��Sv/h),����,����(m/s),���J
2017/10/25,00:00,0.883,1.404,0.889,1.694,1.120,0.494,0.898,0.837,��쐼,4.7,��
2017/10/25,00:10,0.883,1.404,0.888,1.693,1.122,0.492,0.899,0.835,��쐼,4.2,��
2017/10/25,00:20,0.884,1.406,0.888,1.694,1.125,0.494,0.900,0.837,��쐼,4.1,��
2017/10/25,00:30,0.883,1.406,0.888,1.694,1.123,0.493,0.898,0.835,��쐼,4.2,��
2017/10/25,00:40,0.884,1.407,0.887,1.695,1.122,0.492,0.899,0.834,��쐼,3.4,��
2017/10/25,00:50,0.884,1.406,0.888,1.693,1.123,0.493,0.899,0.836,��쐼,3.8,��
2017/10/25,01:00,0.885,1.406,0.888,1.695,1.124,0.493,0.899,0.836,��쐼,3.8,��
2017/10/25,01:10,0.883,1.407,0.888,1.695,1.123,0.493,0.897,0.838,��쐼,3.5,��
2017/10/25,01:20,0.885,1.405,0.887,1.694,1.122,0.493,0.900,0.837,��쐼,3.0,��
2017/10/25,01:30,0.884,1.403,0.888,1.694,1.120,0.493,0.898,0.836,��쐼,2.0,��
2017/10/25,01:40,0.881,1.403,0.887,1.694,1.124,0.493,0.896,0.838,��쐼,2.2,��
2017/10/25,01:50,0.884,1.403,0.887,1.693,1.126,0.493,0.900,0.835,�쐼,2.2,��
2017/10/25,02:00,0.884,1.405,0.887,1.692,1.122,0.494,0.897,0.836,���쐼,2.6,��
2017/10/25,02:10,0.883,1.406,0.888,1.695,1.123,0.494,0.900,0.835,���쐼,2.5,��
2017/10/25,02:20,0.882,1.408,0.887,1.696,1.122,0.492,0.899,0.836,���쐼,2.6,��
2017/10/25,02:30,0.883,1.403,0.888,1.694,1.123,0.492,0.899,0.837,���쐼,2.6,��
2017/10/25,02:40,0.881,1.407,0.888,1.695,1.125,0.492,0.900,0.837,���쐼,3.2,��
2017/10/25,02:50,0.882,1.407,0.887,1.696,1.124,0.493,0.901,0.837,��,2.8,��
2017/10/25,03:00,0.883,1.406,0.887,1.695,1.123,0.493,0.900,0.838,��,3.1,��
2017/10/25,03:10,0.883,1.407,0.887,1.694,1.123,0.493,0.900,0.837,��,2.9,��
2017/10/25,03:20,0.883,1.406,0.886,1.694,1.124,0.493,0.900,0.837,���k��,2.2,��
2017/10/25,03:30,0.882,1.406,0.887,1.692,1.124,0.494,0.899,0.837,���k��,2.6,��
2017/10/25,03:40,0.883,1.405,0.888,1.693,1.124,0.494,0.900,0.837,�k��,3.0,��
2017/10/25,03:50,0.883,1.405,0.887,1.695,1.126,0.493,0.900,0.835,�k��,4.2,��
2017/10/25,04:00,0.884,1.404,0.888,1.694,1.125,0.494,0.900,0.836,�k�k��,4.5,��
2017/10/25,04:10,0.884,1.407,0.886,1.696,1.126,0.494,0.901,0.835,�k�k��,4.9,��
2017/10/25,04:20,0.882,1.404,0.889,1.697,1.126,0.492,0.900,0.837,�k�k��,4.5,��
2017/10/25,04:30,0.883,1.406,0.886,1.696,1.125,0.493,0.899,0.837,�k�k��,4.1,�L
2017/10/25,04:40,0.883,1.405,0.885,1.696,1.124,0.492,0.899,0.838,�k�k��,3.3,��
2017/10/25,04:50,0.883,1.405,0.890,1.695,1.125,0.491,0.900,0.837,�k�k��,2.8,��
2017/10/25,05:00,0.883,1.408,0.888,1.694,1.125,0.494,0.899,0.837,�k,2.0,��
2017/10/25,05:10,0.883,1.404,0.886,1.693,1.124,0.493,0.898,0.836,�k�k��,2.0,��
2017/10/25,05:20,0.882,1.403,0.887,1.692,1.127,0.493,0.900,0.837,�k�k��,2.6,��
2017/10/25,05:30,0.882,1.406,0.887,1.697,1.126,0.492,0.899,0.837,�k��,3.0,��
2017/10/25,05:40,0.882,1.404,0.887,1.694,1.128,0.492,0.899,0.837,�k��,3.0,��
2017/10/25,05:50,0.882,1.405,0.888,1.695,1.125,0.494,0.899,0.839,�k��,2.5,��
2017/10/25,06:00,0.882,1.405,0.887,1.694,1.125,0.493,0.898,0.839,�k�k��,2.9,��
2017/10/25,06:10,0.882,1.405,0.887,1.697,1.126,0.492,0.898,0.839,�k�k��,3.2,��
2017/10/25,06:20,0.883,1.406,0.887,1.698,1.124,0.492,0.899,0.838,�k�k��,3.0,��
2017/10/25,06:30,0.882,1.406,0.886,1.694,1.126,0.493,0.900,0.837,�k�k��,3.7,��
2017/10/25,06:40,0.881,1.405,0.888,1.693,1.125,0.492,0.898,0.837,�k��,4.3,��
2017/10/25,06:50,0.884,1.404,0.886,1.697,1.125,0.491,0.900,0.838,�k��,4.7,��
2017/10/25,07:00,0.882,1.405,0.888,1.694,1.125,0.493,0.899,0.837,�k�k��,4.8,��
2017/10/25,07:10,0.882,1.405,0.889,1.696,1.128,0.493,0.900,0.838,�k�k��,5.3,��
2017/10/25,07:20,0.884,1.406,0.887,1.698,1.126,0.493,0.900,0.837,�k��,4.9,��
2017/10/25,07:30,0.883,1.406,0.889,1.696,1.124,0.493,0.900,0.839,�k�k��,4.8,��
2017/10/25,07:40,0.882,1.405,0.888,1.699,1.127,0.492,0.901,0.837,�k��,4.4,��
2017/10/25,07:50,0.885,1.408,0.890,1.695,1.127,0.493,0.901,0.836,�k�k��,3.8,��
2017/10/25,08:00,0.887,1.403,0.889,1.688,1.126,0.493,0.899,0.840,�k�k��,3.9,��
2017/10/25,08:10,0.890,1.405,0.888,1.691,1.128,0.493,0.901,0.838,�k��,3.9,��
2017/10/25,08:20,0.888,1.408,0.888,1.689,1.128,0.493,0.902,0.836,�k��,3.2,��
2017/10/25,08:30,0.887,1.408,0.888,1.692,1.128,0.493,0.901,0.840,�k�k��,3.5,��
2017/10/25,08:40,0.887,1.404,0.887,1.687,1.127,0.493,0.898,0.839,�k�k��,3.4,��
2017/10/25,08:50,0.886,1.408,0.889,1.689,1.127,0.493,0.899,0.839,�k�k��,3.1,��
2017/10/25,09:00,0.888,1.409,0.887,1.692,1.130,0.494,0.900,0.840,�k�k��,3.2,��
2017/10/25,09:10,0.889,1.410,0.889,1.691,1.127,0.491,0.899,0.839,�k�k��,3.7,��
2017/10/25,09:20,0.887,1.410,0.888,1.692,1.127,0.494,0.899,0.839,�k�k��,3.2,��
2017/10/25,09:30,0.887,1.409,0.889,1.693,1.128,0.494,0.900,0.839,�k��,4.0,��
2017/10/25,09:40,0.888,1.408,0.890,1.695,1.129,0.494,0.898,0.840,�k��,3.8,��
2017/10/25,09:50,0.887,1.409,0.892,1.695,1.117,0.494,0.898,0.841,�k��,4.8,��
2017/10/25,10:00,0.888,1.409,0.890,1.698,1.116,0.494,0.898,0.839,�k��,3.8,��
2017/10/25,10:10,0.888,1.405,0.890,1.698,1.123,0.494,0.901,0.841,�k��,3.4,��
2017/10/25,10:20,0.888,1.409,0.892,1.697,1.119,0.492,0.902,0.840,�k��,3.0,��
2017/10/25,10:30,0.891,1.405,0.892,1.699,1.127,0.493,0.900,0.841,�k��,3.8,��
2017/10/25,10:40,0.889,1.409,0.891,1.694,1.125,0.491,0.900,0.839,�k�k��,3.0,��
2017/10/25,10:50,0.890,1.406,0.892,1.695,1.126,0.493,0.901,0.840,�k�k��,3.9,��
2017/10/25,11:00,0.889,1.402,0.894,1.692,1.124,0.492,0.900,0.839,�k�k��,3.6,��
2017/10/25,11:10,0.890,1.403,0.892,1.698,1.122,0.491,0.901,0.838,�k�k��,3.1,��
2017/10/25,11:20,0.888,1.405,0.889,1.703,1.125,0.492,0.900,0.839,�k��,3.3,��
2017/10/25,11:30,0.889,1.408,0.879,1.703,1.123,0.493,0.902,0.838,�k�k��,4.3,��
2017/10/25,11:40,0.887,1.406,0.878,1.702,1.124,0.495,0.901,0.839,�k�k��,3.3,��
2017/10/25,11:50,0.887,1.406,0.882,1.702,1.124,0.493,0.903,0.839,�k,2.6,��
2017/10/25,12:00,0.887,1.410,0.889,1.704,1.125,0.494,0.901,0.839,�k�k��,4.3,��
2017/10/25,12:10,0.888,1.412,0.890,1.704,1.122,0.493,0.902,0.840,�k,5.4,��
2017/10/25,12:20,0.887,1.408,0.890,1.705,1.127,0.494,0.900,0.838,�k,5.1,��
2017/10/25,12:30,0.887,1.410,0.890,1.705,1.126,0.494,0.902,0.837,�k�k��,5.0,��
2017/10/25,12:40,0.888,1.411,0.891,1.702,1.125,0.494,0.901,0.839,�k�k��,4.9,��
2017/10/25,12:50,0.888,1.411,0.891,1.706,1.128,0.495,0.902,0.838,�k�k��,4.4,��
2017/10/25,13:00,0.888,1.410,0.891,1.705,1.127,0.494,0.903,0.836,�k,4.1,��
2017/10/25,13:10,0.889,1.406,0.890,1.707,1.129,0.494,0.901,0.838,�k�k��,4.2,��
2017/10/25,13:20,0.890,1.409,0.891,1.706,1.127,0.495,0.904,0.837,�k�k��,5.1,��
2017/10/25,13:30,0.889,1.409,0.892,1.703,1.125,0.495,0.902,0.839,�k�k��,5.5,��
2017/10/25,13:40,0.890,1.408,0.890,1.705,1.127,0.493,0.903,0.838,�k�k��,4.7,��
2017/10/25,13:50,0.889,1.411,0.891,1.704,1.126,0.496,0.901,0.839,�k,5.8,��
2017/10/25,14:00,0.890,1.410,0.892,1.705,1.127,0.494,0.902,0.839,�k,4.9,�L
2017/10/25,14:10,0.889,1.411,0.894,1.706,1.129,0.495,0.902,0.838,�k,5.7,�L
2017/10/25,14:20,0.890,1.414,0.893,1.706,1.130,0.494,0.901,0.838,�k,5.4,��
2017/10/25,14:30,0.893,1.412,0.895,1.703,1.130,0.493,0.902,0.840,�k,5.5,��
2017/10/25,14:40,0.892,1.416,0.896,1.708,1.133,0.496,0.900,0.841,�k,5.3,��
2017/10/25,14:50,0.894,1.416,0.896,1.704,1.134,0.496,0.903,0.839,�k,4.7,�L
2017/10/25,15:00,0.893,1.413,0.894,1.706,1.134,0.497,0.900,0.842,�k�k��,3.7,�L
2017/10/25,15:10,0.890,1.414,0.893,1.707,1.133,0.495,0.901,0.841,�k�k��,3.4,��
2017/10/25,15:20,0.892,1.415,0.893,1.705,1.135,0.493,0.902,0.841,�k��,3.3,�L
2017/10/25,15:30,0.893,1.415,0.894,1.704,1.134,0.497,0.902,0.842,�k��,3.1,�L
2017/10/25,15:40,0.892,1.416,0.894,1.706,1.133,0.496,0.902,0.841,�k�k��,3.6,�L
2017/10/25,15:50,0.892,1.416,0.896,1.704,1.134,0.497,0.903,0.843,�k�k��,4.2,��
2017/10/25,16:00,0.892,1.415,0.895,1.704,1.134,0.494,0.903,0.841,�k�k��,4.7,��
2017/10/25,16:10,0.892,1.415,0.893,1.704,1.135,0.496,0.904,0.843,�k�k��,5.0,��
2017/10/25,16:20,0.892,1.413,0.894,1.702,1.135,0.498,0.904,0.842,�k�k��,5.2,�L
2017/10/25,16:30,0.894,1.415,0.895,1.707,1.138,0.498,0.901,0.841,�k�k��,6.3,�L
2017/10/25,16:40,0.896,1.418,0.895,1.705,1.136,0.496,0.903,0.841,�k�k��,6.4,��
2017/10/25,16:50,0.894,1.416,0.894,1.706,1.137,0.497,0.904,0.841,�k�k��,5.8,��
2017/10/25,17:00,0.893,1.415,0.892,1.704,1.136,0.497,0.904,0.841,�k�k��,5.5,��
2017/10/25,17:10,0.895,1.415,0.894,1.705,1.135,0.496,0.902,0.841,�k�k��,6.2,��
2017/10/25,17:20,0.894,1.416,0.896,1.703,1.135,0.496,0.902,0.842,�k�k��,5.8,��
2017/10/25,17:30,0.894,1.418,0.895,1.704,1.136,0.496,0.903,0.841,�k�k��,5.9,��
2017/10/25,17:40,0.895,1.417,0.897,1.704,1.137,0.497,0.905,0.840,�k�k��,6.6,��
2017/10/25,17:50,0.896,1.417,0.894,1.707,1.138,0.497,0.904,0.842,�k�k��,5.8,��
2017/10/25,18:00,0.896,1.417,0.894,1.707,1.138,0.497,0.902,0.841,�k�k��,6.0,��
2017/10/25,18:10,0.893,1.418,0.896,1.704,1.139,0.496,0.903,0.840,�k�k��,7.3,��
2017/10/25,18:20,0.892,1.416,0.893,1.702,1.137,0.497,0.903,0.842,�k�k��,7.1,��
2017/10/25,18:30,0.893,1.416,0.894,1.703,1.140,0.497,0.901,0.839,�k�k��,6.2,��
2017/10/25,18:40,0.894,1.416,0.894,1.707,1.137,0.496,0.902,0.840,�k�k��,7.1,��
2017/10/25,18:50,0.895,1.417,0.893,1.703,1.139,0.497,0.902,0.840,�k,6.5,��
2017/10/25,19:00,0.893,1.417,0.894,1.705,1.138,0.497,0.903,0.842,�k,6.5,��
2017/10/25,19:10,0.894,1.416,0.894,1.706,1.140,0.496,0.903,0.840,�k,6.0,��
2017/10/25,19:20,0.894,1.417,0.895,1.705,1.136,0.497,0.903,0.842,�k�k��,7.2,��
2017/10/25,19:30,0.895,1.415,0.896,1.706,1.138,0.496,0.904,0.840,�k�k��,7.4,��
2017/10/25,19:40,0.895,1.415,0.892,1.704,1.137,0.495,0.904,0.841,�k�k��,6.2,��
2017/10/25,19:50,0.892,1.417,0.895,1.706,1.137,0.495,0.904,0.839,�k,6.1,��
2017/10/25,20:00,0.892,1.415,0.894,1.706,1.139,0.495,0.905,0.840,�k,6.1,��
2017/10/25,20:10,0.893,1.416,0.893,1.704,1.137,0.495,0.903,0.840,�k,6.5,��
2017/10/25,20:20,0.894,1.417,0.893,1.705,1.138,0.495,0.905,0.841,�k,6.5,��
2017/10/25,20:30,0.895,1.414,0.895,1.705,1.140,0.496,0.903,0.839,�k,6.0,��
2017/10/25,20:40,0.894,1.416,0.894,1.703,1.139,0.496,0.902,0.839,�k,6.0,��
2017/10/25,20:50,0.894,1.414,0.895,1.705,1.138,0.496,0.903,0.839,�k,6.6,��
2017/10/25,21:00,0.890,1.417,0.892,1.705,1.137,0.496,0.902,0.840,�k,7.1,��
2017/10/25,21:10,0.891,1.419,0.892,1.706,1.137,0.497,0.903,0.840,�k,6.3,��
2017/10/25,21:20,0.890,1.414,0.894,1.704,1.139,0.496,0.902,0.840,�k,6.3,��
2017/10/25,21:30,0.892,1.416,0.894,1.702,1.141,0.496,0.904,0.840,�k,7.0,��
2017/10/25,21:40,0.893,1.417,0.893,1.705,1.138,0.496,0.903,0.839,�k,6.8,��
2017/10/25,21:50,0.890,1.415,0.891,1.704,1.139,0.497,0.903,0.839,�k�k��,7.6,��
2017/10/25,22:00,0.891,1.416,0.895,1.707,1.139,0.494,0.904,0.839,�k�k��,6.6,��
2017/10/25,22:10,0.891,1.416,0.893,1.705,1.137,0.494,0.903,0.842,�k�k��,6.6,��
2017/10/25,22:20,0.891,1.414,0.894,1.704,1.140,0.494,0.904,0.840,�k,7.1,��
2017/10/25,22:30,0.892,1.416,0.894,1.706,1.139,0.495,0.906,0.840,�k,8.2,��
2017/10/25,22:40,0.892,1.416,0.891,1.705,1.139,0.495,0.904,0.841,�k,7.3,��
2017/10/25,22:50,0.891,1.413,0.894,1.705,1.140,0.496,0.904,0.838,�k,7.7,��
2017/10/25,23:00,0.889,1.415,0.893,1.705,1.138,0.496,0.904,0.840,�k,7.8,��
2017/10/25,23:10,0.891,1.416,0.893,1.706,1.140,0.496,0.903,0.840,�k,8.1,��
2017/10/25,23:20,0.890,1.413,0.893,1.706,1.142,0.496,0.902,0.840,�k,8.4,��
2017/10/25,23:30,0.891,1.415,0.893,1.707,1.139,0.496,0.902,0.840,�k,8.3,��
2017/10/25,23:40,0.891,1.415,0.894,1.707,1.140,0.494,0.904,0.840,�k,8.7,��
2017/10/25,23:50,0.889,1.412,0.893,1.701,1.141,0.496,0.903,0.839,�k,8.2,��
